Regional Weather Roundup
Issued by NWS Huntsville, AL

Home | Current Version | Previous Version | Text Only | Print | Product List | Glossary On
Versions: 1 2 3 4 5 6 7 8 9 10 11 12 13 14 15 16 17 18 19 20 21 22 23 24 25 26 27 28 29 30 31 32 33 34 35 36 37 38 39 40 41 42 43 44 45 46 47 48 49 50
000
ASUS44 KHUN 191310
RWRHUN

WEATHER ROUNDUP FOR THE TENNESSEE VALLEY
NATIONAL WEATHER SERVICE HUNTSVILLE AL
800 AM CDT TUE SEP 19 2017

ALZ001>004-191400-
NORTHWEST ALABAMA

CITY           SKY/WX    TMP DP  RH WIND       PRES   REMARKS
COURTLAND HCN    N/A     68 N/A N/A CALM        N/A
RUSSELLVILLE     N/A     68 N/A N/A MISG        N/A
SHOALS AIRPORT MOSUNNY   73  68  84 CALM      30.00R
SHOALS TVA RES   N/A     70 N/A N/A MISG        N/A
$$

ALZ005>007-016-191400-
NORTH CENTRAL ALABAMA

CITY           SKY/WX    TMP DP  RH WIND       PRES   REMARKS
DECATUR AP     MOSUNNY   70  70 100 CALM      30.01R
HUNTSVILLE AP  MOSUNNY   71  70  96 E3        30.01R
MERIDIANVILLE  MOSUNNY   68  64  88 CALM      30.01S
REDSTONE ARSN  MOSUNNY   69  69  99 CALM      30.00R
VINEMONT AP    FAIR      69  67  92 CALM      30.04R
$$

ALZ008>010-191400-
NORTHEAST ALABAMA

CITY           SKY/WX    TMP DP  RH WIND       PRES   REMARKS
ALBERTVILLE    SUNNY     68  68 100 CALM      30.02R
FORT PAYNE     MOSUNNY   64  61  88 CALM      30.02S
SCOTTSBORO HCN   N/A     66 N/A N/A MISG        N/A
VALLEY HEAD      N/A     61 N/A N/A MISG        N/A
$$

TNZ076-096-097-191400-
SOUTHEASTERN MIDDLE TENNESSEE

CITY           SKY/WX    TMP DP  RH WIND       PRES   REMARKS
TULLAHOMA      SUNNY     70  63  78 CALM      30.03S
WINCHESTER     SUNNY     70  64  83 CALM      30.02S
$$

...SURROUNDING SITES...

CITY           SKY/WX    TMP DP  RH WIND       PRES   REMARKS
ATLANTA        MOSUNNY   72  64  76 N5        30.04R
ANNISTON       SUNNY     68  65  90 NE3       30.03R
BIRMINGHAM     MOSUNNY   75  69  81 CALM      30.03R
CHATTANOOGA    MOSUNNY   68  63  84 CALM      30.04R
DALTON         SUNNY     63  63 100 CALM      30.06R
GADSDEN        CLOUDY    68  66  94 NE3       30.03R FOG
GOLDEN TRNGL   MOSUNNY   73  72  94 CALM      29.95R HAZE
HALEYVILLE     FAIR      73  71  93 CALM      30.03R
JACKSON TN     SUNNY     72  72 100 S3        29.98R
MEMPHIS        MOSUNNY   74  71  91 CALM      29.97R
NASHVILLE      CLOUDY    71  67  87 S6        29.99S
OXFORD MS      FAIR      70  70 100 CALM      30.00R
ROME           SUNNY     67  65  93 CALM      30.03R
SAVANNAH       SUNNY     73  70  88 S3        29.97R
SELMER         SUNNY     73  70  88 W5        29.98R
TUPELO         SUNNY     75  71  87 SE3       29.98R
TUSCALOOSA     MOSUNNY   74  73  97 CALM      29.99R FOG
$$

...GULF COAST WEATHER...

CITY           SKY/WX    TMP DP  RH WIND       PRES   REMARKS
GULFPORT       PTSUNNY   80  77  90 W5        30.00R
PASCAGOULA     MOSUNNY   76  72  87 E3        30.01R
MOBILE         CLOUDY    78  75  90 SW6       30.02R
GULF SHORES    MOSUNNY   77  77 100 CALM      30.01R
PENSACOLA      PTSUNNY   80  76  87 CALM      30.00R
DESTIN         SUNNY     83  75  77 NW5       30.00R HX  90
PANAMA CITY    SUNNY     78  77  95 CALM      30.01R
APPALACHICOLA  SUNNY     77  77 100 N3        30.00R
$$




USA.gov is the U.S. government's official web portal to all federal, state and local government web resources and services.